﻿_id,日時,平均風速(m/s),平均風向,最大瞬間風速(m/s),最大風速時風向,気温(℃),湿度(%),10分間移動積算雨量(mm),1時間移動積算雨量(mm),日雨量(mm),累計雨量(mm)
1,2022-09-05T00:00:00,0.8,東南東,1.7,南東,25.3,86.8,0,0,0,0
2,2022-09-05T00:01:00,0.7,東南東,1.7,南東,25.1,87.1,0,0,0,0
3,2022-09-05T00:02:00,0.7,東南東,1.7,南東,25,87.3,0,0,0,0
4,2022-09-05T00:03:00,0.6,東,1.4,南東,24.9,87.7,0,0,0,0
5,2022-09-05T00:04:00,0.6,東,1.1,北東,24.9,88.3,0,0,0,0
6,2022-09-05T00:05:00,0.6,東,1.1,北東,24.9,88.8,0,0,0,0
7,2022-09-05T00:06:00,0.6,東,1.1,北東,24.8,88.9,0,0,0,0
8,2022-09-05T00:07:00,0.6,東,1.1,北東,24.8,89.3,0,0,0,0
9,2022-09-05T00:08:00,0.6,東,1.1,北東,24.9,89.9,0,0,0,0
10,2022-09-05T00:09:00,0.5,東北東,1.1,北東,25,90.2,0,0,0,0
11,2022-09-05T00:10:00,0.5,東北東,1.1,北東,25,89.4,0,0,0,0
12,2022-09-05T00:11:00,0.5,東北東,1.1,北東,25,89,0,0,0,0
13,2022-09-05T00:12:00,0.5,東北東,1.1,北東,25,88.7,0,0,0,0
14,2022-09-05T00:13:00,0.5,東北東,1.1,東,25,88.6,0,0,0,0
15,2022-09-05T00:14:00,0.4,東北東,1.1,東,25.1,88.2,0,0,0,0
16,2022-09-05T00:15:00,0.4,東北東,0.9,東北東,25.2,88,0,0,0,0
17,2022-09-05T00:16:00,0.3,東北東,0.7,東北東,25.1,87.6,0,0,0,0
18,2022-09-05T00:17:00,0.3,東北東,0.7,東北東,24.9,87.4,0,0,0,0
19,2022-09-05T00:18:00,0.3,東北東,0.7,東北東,25,87.9,0,0,0,0
20,2022-09-05T00:19:00,0.3,東北東,0.7,東北東,25.2,88.5,0,0,0,0
21,2022-09-05T00:20:00,0.3,東北東,0.7,東北東,25.2,88.1,0,0,0,0
22,2022-09-05T00:21:00,0.3,東北東,0.8,東,25.1,87.5,0,0,0,0
23,2022-09-05T00:22:00,0.3,東,0.8,東,25.2,87.9,0,0,0,0
24,2022-09-05T00:23:00,0.3,東,1,南東,25.2,87.5,0,0,0,0
25,2022-09-05T00:24:00,0.4,東,1.3,東南東,25.2,87.4,0,0,0,0
26,2022-09-05T00:25:00,0.5,東南東,1.3,東南東,25.1,87.1,0,0,0,0
27,2022-09-05T00:26:00,0.6,東南東,2.1,南南東,25.1,86.9,0,0,0,0
28,2022-09-05T00:27:00,0.7,東南東,2.1,南南東,25.1,87,0,0,0,0
29,2022-09-05T00:28:00,0.8,東南東,2.1,南南東,25.1,87.1,0,0,0,0
30,2022-09-05T00:29:00,0.9,東南東,2.1,南南東,25,87.1,0,0,0,0
31,2022-09-05T00:30:00,0.9,南東,2.1,南南東,25,87.4,0,0,0,0
32,2022-09-05T00:31:00,0.9,南東,2.1,南南東,25.1,87.8,0,0,0,0
33,2022-09-05T00:32:00,0.9,南東,2.1,南南東,25.1,87.8,0,0,0,0
34,2022-09-05T00:33:00,0.9,南東,2.1,南南東,25,87.4,0,0,0,0
35,2022-09-05T00:34:00,0.9,南東,2.1,南南東,25,87.9,0,0,0,0
36,2022-09-05T00:35:00,0.8,南東,2.1,南南東,25,88.1,0,0,0,0
37,2022-09-05T00:36:00,0.8,南東,2.1,南東,24.8,87.4,0,0,0,0
38,2022-09-05T00:37:00,0.7,東南東,2.1,南東,24.7,87.9,0,0,0,0
39,2022-09-05T00:38:00,0.6,東南東,1.4,南東,24.7,88.7,0,0,0,0
40,2022-09-05T00:39:00,0.6,東南東,1.4,南東,24.7,89,0,0,0,0
41,2022-09-05T00:40:00,0.6,東,1.4,南東,24.6,89.3,0,0,0,0
42,2022-09-05T00:41:00,0.6,東南東,1.4,南東,24.8,90.2,0,0,0,0
43,2022-09-05T00:42:00,0.5,東,1.4,南東,25,90.4,0,0,0,0
44,2022-09-05T00:43:00,0.4,東,1.4,南東,25,89.8,0,0,0,0
45,2022-09-05T00:44:00,0.4,東,1.4,南東,25,89.5,0,0,0,0
46,2022-09-05T00:45:00,0.4,東南東,1.4,南東,25.1,89.3,0,0,0,0
47,2022-09-05T00:46:00,0.3,東南東,1.2,南東,24.9,88.3,0,0,0,0
48,2022-09-05T00:47:00,0.3,南東,1.6,南南西,24.7,87.7,0,0,0,0
49,2022-09-05T00:48:00,0.4,南東,1.6,南南西,24.9,88.9,0,0,0,0
50,2022-09-05T00:49:00,0.4,南南東,1.8,南南東,24.7,88.3,0,0,0,0
51,2022-09-05T00:50:00,0.4,南南東,1.8,南南東,24.6,88.5,0,0,0,0
52,2022-09-05T00:51:00,0.5,南,1.8,南南東,24.5,89.1,0,0,0,0
53,2022-09-05T00:52:00,0.6,南,1.8,南南東,24.5,89.5,0,0,0,0
54,2022-09-05T00:53:00,0.7,南,1.8,南南東,24.6,89.9,0,0,0,0
55,2022-09-05T00:54:00,0.8,南南東,1.8,南南東,24.6,90.2,0,0,0,0
56,2022-09-05T00:55:00,0.9,南南東,2.3,南東,24.6,90,0,0,0,0
57,2022-09-05T00:56:00,1,南南東,2.3,南東,24.6,90,0,0,0,0
58,2022-09-05T00:57:00,1.1,南南東,2.3,南東,24.6,90,0,0,0,0
59,2022-09-05T00:58:00,1.1,南東,2.3,南東,24.6,90.2,0,0,0,0
60,2022-09-05T00:59:00,1.2,南東,2.3,南東,24.5,90.1,0,0,0,0
61,2022-09-05T01:00:00,1.3,南東,2.5,南東,24.5,90.1,0,0,0,0
62,2022-09-05T01:01:00,1.3,南東,2.5,南東,24.5,90.1,0,0,0,0
63,2022-09-05T01:02:00,1.3,東南東,2.5,南東,24.5,90.2,0,0,0,0
64,2022-09-05T01:03:00,1.3,東南東,2.5,南東,24.5,90.4,0,0,0,0
65,2022-09-05T01:04:00,1.3,東南東,2.5,南東,24.5,90.5,0,0,0,0
66,2022-09-05T01:05:00,1.2,東南東,2.5,南東,24.5,90.4,0,0,0,0
67,2022-09-05T01:06:00,1.2,東南東,2.5,南東,24.6,90.6,0,0,0,0
68,2022-09-05T01:07:00,1.2,東南東,2.5,南東,24.5,90.2,0,0,0,0
69,2022-09-05T01:08:00,1.1,東南東,2.5,南東,24.4,90.5,0,0,0,0
70,2022-09-05T01:09:00,1.1,東南東,2.5,南東,24.4,90.7,0,0,0,0
71,2022-09-05T01:10:00,1,東南東,2.1,南南東,24.5,91.1,0,0,0,0
72,2022-09-05T01:11:00,1,南東,2.1,南南東,24.6,91.1,0,0,0,0
73,2022-09-05T01:12:00,0.9,南東,2.1,南南東,24.6,91,0,0,0,0
74,2022-09-05T01:13:00,0.9,南東,2.1,南南東,24.5,90.5,0,0,0,0
75,2022-09-05T01:14:00,0.9,南東,2.1,南南東,24.3,90.1,0,0,0,0
76,2022-09-05T01:15:00,0.9,南東,2.1,南南東,24.3,90.6,0,0,0,0
77,2022-09-05T01:16:00,0.9,南東,1.6,南南東,24.3,90.9,0,0,0,0
78,2022-09-05T01:17:00,0.8,南東,1.6,南南東,24.3,91.4,0,0,0,0
79,2022-09-05T01:18:00,0.9,南東,1.6,南南東,24.2,91.5,0,0,0,0
80,2022-09-05T01:19:00,0.9,南東,1.6,南南東,24.2,91.6,0,0,0,0
81,2022-09-05T01:20:00,1,南東,1.7,南東,24.2,91.9,0,0,0,0
82,2022-09-05T01:21:00,1,南東,1.7,南東,24.2,92.2,0,0,0,0
83,2022-09-05T01:22:00,1,南東,1.7,南東,24.4,92.5,0,0,0,0
84,2022-09-05T01:23:00,1,東南東,1.7,南東,24.4,92.3,0,0,0,0
85,2022-09-05T01:24:00,1,東南東,1.7,南東,24.3,91.9,0,0,0,0
86,2022-09-05T01:25:00,1,東南東,1.7,南東,24.3,91.8,0,0,0,0
87,2022-09-05T01:26:00,1.1,東南東,2,南東,24.3,91.9,0,0,0,0
88,2022-09-05T01:27:00,1.1,東南東,2,南東,24.3,92,0,0,0,0
89,2022-09-05T01:28:00,1.1,東南東,2,南東,24.3,92.1,0,0,0,0
90,2022-09-05T01:29:00,1.1,東南東,2,南東,24.2,92,0,0,0,0
91,2022-09-05T01:30:00,1,東南東,2,南東,24.1,91.9,0,0,0,0
92,2022-09-05T01:31:00,0.9,東南東,2,南東,24.1,92.3,0,0,0,0
93,2022-09-05T01:32:00,0.9,東南東,2,南東,24.1,92.7,0,0,0,0
94,2022-09-05T01:33:00,0.8,東南東,2,南東,24.1,93.1,0,0,0,0
95,2022-09-05T01:34:00,0.8,東南東,2,南東,24,93.2,0,0,0,0
96,2022-09-05T01:35:00,0.8,東南東,2,南東,24,93.4,0,0,0,0
97,2022-09-05T01:36:00,0.7,東南東,2,南東,24,93.6,0,0,0,0
98,2022-09-05T01:37:00,0.7,東南東,1.7,東南東,24,93.7,0,0,0,0
99,2022-09-05T01:38:00,0.7,東南東,1.7,東南東,24,93.7,0,0,0,0
100,2022-09-05T01:39:00,0.7,東南東,1.7,東南東,24,93.9,0,0,0,0
101,2022-09-05T01:40:00,0.7,東南東,1.7,東南東,24,94.1,0,0,0,0
102,2022-09-05T01:41:00,0.8,東南東,1.7,東南東,24.1,94.2,0,0,0,0
103,2022-09-05T01:42:00,0.8,東南東,1.7,東南東,24.1,94.1,0,0,0,0
104,2022-09-05T01:43:00,0.9,東南東,1.7,東南東,24.1,94,0,0,0,0
105,2022-09-05T01:44:00,0.9,東南東,1.7,東南東,24.1,93.9,0,0,0,0
106,2022-09-05T01:45:00,0.9,東南東,1.7,東南東,24.1,93.7,0,0,0,0
107,2022-09-05T01:46:00,0.9,東南東,1.7,東南東,24,93.6,0,0,0,0
108,2022-09-05T01:47:00,0.9,東南東,1.6,南東,24,93.7,0,0,0,0
109,2022-09-05T01:48:00,0.9,東南東,1.6,南東,24,93.8,0,0,0,0
110,2022-09-05T01:49:00,0.9,東南東,1.6,南東,24,93.9,0,0,0,0
111,2022-09-05T01:50:00,0.9,東南東,1.6,南東,24,94.1,0,0,0,0
112,2022-09-05T01:51:00,0.9,東南東,1.6,南東,24,94.2,0,0,0,0
113,2022-09-05T01:52:00,0.9,東南東,1.6,南東,24,94,0,0,0,0
114,2022-09-05T01:53:00,0.9,東,1.6,南東,24,94.1,0,0,0,0
115,2022-09-05T01:54:00,0.8,東,1.6,南東,23.9,94.2,0,0,0,0
116,2022-09-05T01:55:00,0.8,東,1.6,南東,23.8,94,0,0,0,0
117,2022-09-05T01:56:00,0.8,東,1.6,東南東,23.7,94.2,0,0,0,0
118,2022-09-05T01:57:00,0.9,東,1.7,東,23.7,94.6,0,0,0,0
119,2022-09-05T01:58:00,0.9,東,1.7,東,23.7,94.9,0,0,0,0
120,2022-09-05T01:59:00,0.9,東北東,1.7,東,23.7,95.1,0,0,0,0
121,2022-09-05T02:00:00,1,東北東,1.7,東,23.7,95.2,0,0,0,0
122,2022-09-05T02:01:00,1.1,東北東,1.7,東,23.7,95.3,0,0,0,0
123,2022-09-05T02:02:00,1.1,東北東,1.7,東,23.7,95.4,0,0,0,0
124,2022-09-05T02:03:00,1,東,1.7,東,23.7,95.5,0,0,0,0
125,2022-09-05T02:04:00,1.1,東,1.7,東,23.7,95.5,0,0,0,0
126,2022-09-05T02:05:00,1,東,1.7,東,23.7,95.5,0,0,0,0
127,2022-09-05T02:06:00,1,東,1.7,東,23.7,95.5,0,0,0,0
128,2022-09-05T02:07:00,1,東,1.7,東北東,23.7,95.6,0,0,0,0
129,2022-09-05T02:08:00,1,東北東,1.7,東北東,23.7,95.6,0,0,0,0
130,2022-09-05T02:09:00,1,東,1.7,東北東,23.7,95.6,0,0,0,0
131,2022-09-05T02:10:00,0.9,東,1.6,東北東,23.6,95.6,0,0,0,0
132,2022-09-05T02:11:00,0.9,東,1.4,東北東,23.6,95.6,0,0,0,0
133,2022-09-05T02:12:00,0.9,東北東,1.4,東北東,23.6,95.7,0,0,0,0
134,2022-09-05T02:13:00,0.9,東北東,1.4,東北東,23.6,95.8,0,0,0,0
135,2022-09-05T02:14:00,0.9,東北東,1.4,東北東,23.6,95.9,0,0,0,0
136,2022-09-05T02:15:00,0.9,東北東,1.4,東北東,23.6,95.9,0,0,0,0
137,2022-09-05T02:16:00,0.9,東北東,1.4,東北東,23.6,95.9,0,0,0,0
138,2022-09-05T02:17:00,0.9,東北東,1.4,東北東,23.6,96,0,0,0,0
139,2022-09-05T02:18:00,0.9,東北東,1.4,東北東,23.6,96.1,0,0,0,0
140,2022-09-05T02:19:00,1,東北東,1.4,東北東,23.7,96.1,0,0,0,0
141,2022-09-05T02:20:00,0.9,東北東,1.4,東北東,23.7,96.1,0,0,0,0
142,2022-09-05T02:21:00,0.9,東北東,1.4,東北東,23.7,96.1,0,0,0,0
143,2022-09-05T02:22:00,0.8,東北東,1.4,東北東,23.8,96.1,0,0,0,0
144,2022-09-05T02:23:00,0.8,東北東,1.4,東北東,23.9,96.1,0,0,0,0
145,2022-09-05T02:24:00,0.7,東北東,1.4,東北東,23.9,96,0,0,0,0
146,2022-09-05T02:25:00,0.8,東,2.1,南,23.7,95.6,0,0,0,0
147,2022-09-05T02:26:00,0.8,東南東,2.1,南,23.7,95.4,0,0,0,0
148,2022-09-05T02:27:00,0.9,東南東,2.1,南,23.6,95.4,0,0,0,0
149,2022-09-05T02:28:00,0.9,南東,2.1,南,23.6,95.4,0,0,0,0
150,2022-09-05T02:29:00,0.9,南東,2.1,南,23.7,95.5,0,0,0,0
151,2022-09-05T02:30:00,0.9,南南東,2.1,南,23.7,95.5,0,0,0,0
152,2022-09-05T02:31:00,0.9,南南東,2.1,南,23.6,95.5,0,0,0,0
153,2022-09-05T02:32:00,1,南南東,2.1,南,23.6,95.5,0,0,0,0
154,2022-09-05T02:33:00,1,南南東,2.1,南,23.6,95.6,0,0,0,0
155,2022-09-05T02:34:00,1,南南東,2.1,南,23.7,95.7,0,0,0,0
156,2022-09-05T02:35:00,0.9,南南東,2,南南東,23.7,95.6,0,0,0,0
157,2022-09-05T02:36:00,0.9,南南東,1.9,南南東,23.7,95.6,0,0,0,0
158,2022-09-05T02:37:00,0.8,南南東,1.9,南南東,23.8,95.6,0,0,0,0
159,2022-09-05T02:38:00,0.8,南南東,1.9,南南東,24,95.8,0,0,0,0
160,2022-09-05T02:39:00,0.7,南東,1.5,南南東,24.1,95.7,0,0,0,0
161,2022-09-05T02:40:00,0.7,南東,1.5,南南東,23.9,95.2,0,0,0,0
162,2022-09-05T02:41:00,0.7,南東,1.5,南東,23.8,94.9,0,0,0,0
163,2022-09-05T02:42:00,0.7,南東,1.7,南南東,23.8,94.9,0,0,0,0
164,2022-09-05T02:43:00,0.8,南東,2.3,南南東,23.8,94.8,0,0,0,0
165,2022-09-05T02:44:00,0.9,南東,2.3,南南東,23.7,94.8,0,0,0,0
166,2022-09-05T02:45:00,1,南東,2.3,南南東,23.8,95,0,0,0,0
167,2022-09-05T02:46:00,1.1,南東,2.3,南南東,23.8,95.2,0,0,0,0
168,2022-09-05T02:47:00,1.1,南東,2.3,南南東,23.8,95.2,0,0,0,0
169,2022-09-05T02:48:00,1.1,南東,2.3,南南東,23.8,95.1,0,0,0,0
170,2022-09-05T02:49:00,1.2,南東,2.3,南南東,23.8,95.1,0,0,0,0
171,2022-09-05T02:50:00,1.2,南東,2.3,南南東,23.8,95,0,0,0,0
172,2022-09-05T02:51:00,1.2,南東,2.3,南南東,23.8,95,0,0,0,0
173,2022-09-05T02:52:00,1.2,南東,2.3,南南東,23.8,95.1,0,0,0,0
174,2022-09-05T02:53:00,1.2,南東,2.1,南東,23.8,95.1,0,0,0,0
175,2022-09-05T02:54:00,1.2,南東,2.1,南東,23.8,95.1,0,0,0,0
176,2022-09-05T02:55:00,1.2,南東,2.1,南東,23.8,95.2,0,0,0,0
177,2022-09-05T02:56:00,1.2,南東,1.9,南南東,23.8,95.2,0,0,0,0
178,2022-09-05T02:57:00,1.2,南東,1.9,南南東,23.8,95.2,0,0,0,0
179,2022-09-05T02:58:00,1.2,南東,2.1,南東,23.9,95.1,0,0,0,0
180,2022-09-05T02:59:00,1.2,南東,2.1,南東,23.8,95,0,0,0,0
181,2022-09-05T03:00:00,1.3,南東,2.2,南南東,23.8,94.9,0,0,0,0
182,2022-09-05T03:01:00,1.3,南東,2.4,南東,23.9,95,0,0,0,0
183,2022-09-05T03:02:00,1.3,南東,2.4,南東,23.9,95,0,0,0,0
184,2022-09-05T03:03:00,1.3,南東,2.4,南東,23.9,95.1,0,0,0,0
185,2022-09-05T03:04:00,1.4,南東,2.9,南東,23.9,94.9,0,0,0,0
186,2022-09-05T03:05:00,1.4,南東,2.9,南東,23.9,94.7,0,0,0,0
187,2022-09-05T03:06:00,1.4,南東,2.9,南東,23.9,94.5,0,0,0,0
188,2022-09-05T03:07:00,1.4,南東,2.9,南東,23.8,94.6,0,0,0,0
189,2022-09-05T03:08:00,1.5,南東,2.9,南東,23.8,94.5,0,0,0,0
190,2022-09-05T03:09:00,1.5,南東,2.9,南東,23.8,94.6,0,0,0,0
191,2022-09-05T03:10:00,1.4,南東,2.9,南東,23.7,94.7,0,0,0,0
192,2022-09-05T03:11:00,1.4,南東,2.9,南東,23.7,94.9,0,0,0,0
193,2022-09-05T03:12:00,1.4,南東,2.9,南東,23.7,95,0,0,0,0
194,2022-09-05T03:13:00,1.3,南東,2.9,南東,23.7,95.1,0,0,0,0
195,2022-09-05T03:14:00,1.3,南東,2.7,南東,23.7,95.2,0,0,0,0
196,2022-09-05T03:15:00,1.2,南東,2.4,南南東,23.7,95.3,0,0,0,0
197,2022-09-05T03:16:00,1.2,南東,2.4,南南東,23.7,95.4,0,0,0,0
198,2022-09-05T03:17:00,1.2,南東,2.4,南南東,23.8,95.4,0,0,0,0
199,2022-09-05T03:18:00,1.2,南東,2.6,南南東,23.8,95.3,0,0,0,0
200,2022-09-05T03:19:00,1.3,南東,2.9,南東,23.8,95.3,0,0,0,0
201,2022-09-05T03:20:00,1.3,南東,2.9,南東,23.8,95.3,0,0,0,0
202,2022-09-05T03:21:00,1.4,南東,2.9,南東,23.8,95.3,0,0,0,0
203,2022-09-05T03:22:00,1.4,南東,2.9,南東,23.8,95.3,0,0,0,0
204,2022-09-05T03:23:00,1.4,南東,2.9,南東,23.8,95.2,0,0,0,0
205,2022-09-05T03:24:00,1.5,南東,2.9,南東,23.8,95.2,0,0,0,0
206,2022-09-05T03:25:00,1.5,南東,2.9,南東,23.8,95.1,0,0,0,0
207,2022-09-05T03:26:00,1.5,南東,2.9,南東,23.8,95.1,0,0,0,0
208,2022-09-05T03:27:00,1.5,南東,2.9,南東,23.8,95.1,0,0,0,0
209,2022-09-05T03:28:00,1.4,南東,2.9,南東,23.8,95,0,0,0,0
210,2022-09-05T03:29:00,1.3,南東,2.6,東南東,23.8,95.1,0,0,0,0
211,2022-09-05T03:30:00,1.2,南東,2.6,東南東,23.8,95.1,0,0,0,0
212,2022-09-05T03:31:00,1.1,南南東,2.6,東南東,23.9,95.2,0,0,0,0
213,2022-09-05T03:32:00,1.1,南南東,2.6,東南東,23.8,95,0,0,0,0
214,2022-09-05T03:33:00,1,南南東,2.6,東南東,23.8,94.7,0,0,0,0
215,2022-09-05T03:34:00,0.9,南南東,2.3,南東,23.8,94.9,0,0,0,0
216,2022-09-05T03:35:00,0.9,南,2.3,南東,23.9,94.9,0,0,0,0
217,2022-09-05T03:36:00,0.8,南,1.9,南南東,23.9,94.8,0,0,0,0
218,2022-09-05T03:37:00,0.7,南南東,1.7,南,23.9,94.7,0,0,0,0
219,2022-09-05T03:38:00,0.7,南南東,1.7,南,23.9,94.6,0,0,0,0
220,2022-09-05T03:39:00,0.7,南南東,1.7,南,23.9,94.3,0,0,0,0
221,2022-09-05T03:40:00,0.7,南南東,1.7,南,23.9,94.3,0,0,0,0
222,2022-09-05T03:41:00,0.7,南東,1.7,南,23.9,94.3,0,0,0,0
223,2022-09-05T03:42:00,0.7,南東,1.7,南,23.9,94.3,0,0,0,0
224,2022-09-05T03:43:00,0.7,東南東,1.4,南南東,23.7,94.1,0,0,0,0
225,2022-09-05T03:44:00,0.6,東南東,1.4,南南東,23.7,94.3,0,0,0,0
226,2022-09-05T03:45:00,0.7,東南東,1.3,東,23.6,94.6,0,0,0,0
227,2022-09-05T03:46:00,0.7,東,1.3,東,23.6,94.9,0,0,0,0
228,2022-09-05T03:47:00,0.7,東,1.3,東,23.6,95.2,0,0,0,0
229,2022-09-05T03:48:00,0.8,東,1.4,東北東,23.6,95.3,0,0,0,0
230,2022-09-05T03:49:00,0.8,東,1.4,東北東,23.6,95.3,0,0,0,0
231,2022-09-05T03:50:00,0.9,東北東,1.4,東北東,23.5,95.4,0,0,0,0
232,2022-09-05T03:51:00,0.8,東北東,1.4,東北東,23.5,95.5,0,0,0,0
233,2022-09-05T03:52:00,0.8,東北東,1.4,東北東,23.5,95.7,0,0,0,0
234,2022-09-05T03:53:00,0.8,東北東,1.4,東北東,23.5,95.8,0,0,0,0
235,2022-09-05T03:54:00,0.8,東北東,1.4,東北東,23.5,95.8,0,0,0,0
236,2022-09-05T03:55:00,0.8,東北東,1.4,東北東,23.5,95.9,0,0,0,0
237,2022-09-05T03:56:00,0.8,東北東,1.4,東北東,23.5,95.9,0,0,0,0
238,2022-09-05T03:57:00,0.7,東北東,1.4,東北東,23.5,95.9,0,0,0,0
239,2022-09-05T03:58:00,0.6,東北東,1.2,東北東,23.6,96,0,0,0,0
240,2022-09-05T03:59:00,0.6,東北東,1.3,北東,23.5,95.9,0,0,0,0
241,2022-09-05T04:00:00,0.6,東北東,1.6,東北東,23.4,95.9,0,0,0,0
242,2022-09-05T04:01:00,0.7,東北東,1.6,東北東,23.4,95.8,0,0,0,0
243,2022-09-05T04:02:00,0.7,東北東,1.6,東北東,23.3,95.9,0,0,0,0
244,2022-09-05T04:03:00,0.8,東北東,1.7,東北東,23.3,96,0,0,0,0
245,2022-09-05T04:04:00,0.8,東北東,1.8,東北東,23.3,96.1,0,0,0,0
246,2022-09-05T04:05:00,0.9,東北東,1.8,東北東,23.4,96.3,0,0,0,0
247,2022-09-05T04:06:00,1,東北東,1.8,東北東,23.3,96.2,0,0,0,0
248,2022-09-05T04:07:00,1.1,東北東,1.8,東北東,23.3,96.2,0,0,0,0
249,2022-09-05T04:08:00,1.1,東北東,1.8,東北東,23.3,96.2,0,0,0,0
250,2022-09-05T04:09:00,1.2,東北東,1.8,東北東,23.3,96.2,0,0,0,0
